Location: Bagnara
(41.0500°N, 14.7833°E)
Time: 11:34:44
(UTC+00:00)

Cosmos 2058 - Pass Details

Date: 20 June 2021
Orbit: 563 x 582 km, 82.5° (Epoch: 28 July)

Event Time Altitude Azimuth Distance (km) Brightness Sun altitude
Exits shadow 00:24:25 63° 284° (WNW) 631 3.0 -22.8°
Drops below altitude 10° 00:28:26 10° 1° (N) 1,864 6.5 -22.5°
Sets 00:30:39 0° 5° (N) 2,766 7.7 -22.3°
